{"data":{"norad_id":60410,"epoch":"2026-09-21T00:33:46.551744Z","epoch_age_seconds":140316,"freshness":"FRESH","line1":"1 60410U 24141N   26264.02345546  .00000207  00000+0  65653-5 0  9990","line2":"2 60410  53.1600 203.2314 0000942  92.0507 268.0619 15.69711113122429","mean_motion":15.69711113,"eccentricity":9.42e-5,"inclination_deg":53.16,"raan_deg":203.2314,"arg_perigee_deg":92.0507,"mean_anomaly_deg":268.0619,"bstar":6.5653e-6,"rev_number":12242,"period_min":91.736625170978,"perigee_km":359.08885897643,"apogee_km":360.35827190696,"semimajor_km":6737.8605654417,"source":"CELESTRAK","updated_at":"2026-09-22T09:00:49.231230Z"}}